(735) Marghanna
ephemeris date magn radius delta ra dec elong phase
Today24 Aug 202616.13.365 AU4.334 AU10h01m+25°49'14.7°4.4°
Opposition7 Mar 202715.23.595 AU2.644 AU11h43m+22°59'160.6°5.3°
(735) Marghanna - 2026-08-24
astro.vanbuitenen.nl


 
-1 year
-1 month
-1 day
Now
+1 day
+1 month
+1 year

The interactive orbit chart above shows the body's path through the solar system and its position at the given date. Green and blue lines are shown perpendicular to the ecliptic plane: Green if the path is above the ecliptic plane, blue if it is below. (Left-click and drag to rotate the view; Right-click and drag to move the view; Use scroll wheel to zoom in our out.)

The orbital elements of Marghanna are:

            e (Eccentricity)                : 0.3211861
            a (Semimajor axis)              : 2.7320296
            i (Inclination)                 : 16.85380
            Ω (Longitude of ascending node) : 42.81961
            ω (Argument of perihelion)      : 310.19677
            M (Mean anomaly)                : 106.86857
            Epoch                           : 2026 Jun 09

            L (Longitude of perihelion)     : -5.73939
            B (Latitude of perihelion)      : -12.79470
            P (Orbital period in years)     : 4.52            
        

The light curve chart below shows the estimated development of the minor planet's magnitude.


The all-sky chart below shows the path of the minor planet over the same period as the light curve. The current position is marked yellow.





The following chart shows the path of the minor planet in the next few days. The field of view is optimized for (~10x50) binoculars and finderscopes.




Ephemerides:
Date       Time       RA (2000)    DEC (2000)    delta   radius  elong  phase   PA    magn
2026-08-24 00:00 UT   10 01 43.1   +25 49 17     4.334    3.365   14.7    4.4   352   16.1 
2026-08-24 19:38 UT   10 02 50.1   +25 43 43     4.334    3.367   14.9    4.4   350   16.1 
2026-08-25 00:00 UT   10 03 04.9   +25 42 29     4.334    3.367   15.0    4.4   350   16.1 
2026-08-26 00:00 UT   10 04 26.5   +25 35 42     4.333    3.369   15.3    4.5   348   16.1 
2026-08-27 00:00 UT   10 05 48.0   +25 28 55     4.333    3.371   15.7    4.6   346   16.1 
2026-08-28 00:00 UT   10 07 09.2   +25 22 09     4.332    3.373   16.0    4.7   344   16.1 
2026-08-29 00:00 UT   10 08 30.2   +25 15 24     4.331    3.375   16.4    4.8   342   16.1 
2026-08-30 00:00 UT   10 09 51.0   +25 08 39     4.330    3.376   16.8    5.0   341   16.1 
2026-08-31 00:00 UT   10 11 11.6   +25 01 55     4.329    3.378   17.2    5.1   339   16.1 
2026-09-01 00:00 UT   10 12 32.0   +24 55 12     4.328    3.380   17.6    5.2   337   16.1 
2026-09-02 00:00 UT   10 13 52.2   +24 48 30     4.327    3.382   18.1    5.3   336   16.1 
2026-09-03 00:00 UT   10 15 12.2   +24 41 48     4.325    3.384   18.5    5.4   335   16.1 
2026-09-04 00:00 UT   10 16 32.0   +24 35 07     4.323    3.386   19.0    5.6   333   16.1 
2026-09-05 00:00 UT   10 17 51.6   +24 28 28     4.321    3.387   19.5    5.7   332   16.2 
2026-09-06 00:00 UT   10 19 11.0   +24 21 49     4.319    3.389   20.0    5.8   331   16.2 
2026-09-07 00:00 UT   10 20 30.1   +24 15 11     4.317    3.391   20.5    6.0   330   16.2 
2026-09-08 00:00 UT   10 21 49.0   +24 08 34     4.314    3.393   21.0    6.1   329   16.2 
2026-09-09 00:00 UT   10 23 07.7   +24 01 59     4.312    3.394   21.5    6.2   328   16.2 
2026-09-10 00:00 UT   10 24 26.2   +23 55 25     4.309    3.396   22.0    6.4   327   16.2 
2026-09-11 00:00 UT   10 25 44.4   +23 48 52     4.306    3.398   22.5    6.5   326   16.2 
2026-09-12 00:00 UT   10 27 02.4   +23 42 20     4.303    3.400   23.0    6.7   325   16.2 
2026-09-13 00:00 UT   10 28 20.2   +23 35 50     4.300    3.401   23.6    6.8   324   16.2 
2026-09-14 00:00 UT   10 29 37.7   +23 29 21     4.296    3.403   24.1    6.9   323   16.2 
2026-09-15 00:00 UT   10 30 54.9   +23 22 54     4.293    3.405   24.7    7.1   322   16.2 
2026-09-16 00:00 UT   10 32 12.0   +23 16 28     4.289    3.407   25.2    7.2   322   16.2 
2026-09-17 00:00 UT   10 33 28.7   +23 10 04     4.285    3.408   25.8    7.4   321   16.2 
2026-09-18 00:00 UT   10 34 45.2   +23 03 41     4.281    3.410   26.4    7.5   320   16.2 
2026-09-19 00:00 UT   10 36 01.5   +22 57 20     4.277    3.412   26.9    7.7   320   16.2 


    Terminology:
            
    delta:  distance between minor planet and earth in AU
    radius: distance between minor planet and sun in AU
    magn:   magnitude (brightness) estimate    
    ra:     right ascension in hours (24h = 360deg)
    dec:    declination in degrees
    elong:  elongation in degrees (angle sun-earth-minor planet)    
    phase:  phase angle in degrees (angle sun-minor planet-earth)        
    AU:     Astronomical Unit (mean distance between earth and sun: 149597870.7 km
    

Orbital elements provided by the MPC (Minor Planet Center).
Calculations by a modified version of AAPlus, a C# implementation of the AA+ project by PJ Naughter from the algorithms presented in the book "Astronomical Algorithms" by Jean Meeus.
NGC2000 dso catalog and star labels from VizieR as provided by the Strasbourg astronomical Data Center.
Tycho2 catalog from the ESO archive.